CW4279 Weather Reports


Display with metric or nautical units.
time (UTC)temp
F
wind
direction
speed
MPH
gust
MPH
rain 1hr
in
rain 24hr
in
rain mn
in
humidity
%
barometer
mb
20260502160639 58 199 3.0 5.0 0.00 0.00 0.00 36 1014.8
20260502160137 58 192 3.0 6.0 0.00 0.00 0.00 35 1014.8
20260502152051 55 128 2.0 3.0 0.00 0.00 0.00 36 1015.3
20260502151549 56 114 0.0 2.0 0.00 0.00 0.00 36 1015.2
20260502151046 56 153 1.0 3.0 0.00 0.00 0.00 37 1015.3
20260502150543 55 116 0.0 3.0 0.00 0.00 0.00 37 1015.2
20260502130428 40 145 1.0 1.0 0.00 0.00 0.00 72 1016.1
20260502123411 36 152 1.0 2.0 0.00 0.00 0.00 77 1015.9
20260502122908 35 144 0.0 1.0 0.00 0.00 0.00 84 1015.9
20260502122404 34 144 1.0 2.0 0.00 0.00 0.00 84 1016.0
20260502121902 32 154 1.0 2.0 0.00 0.00 0.00 90 1016.0
20260502121359 31 138 0.0 0.0 0.00 0.00 0.00 88 1015.8
20260502120857 32 138 0.0 1.0 0.00 0.00 0.00 88 1015.7
20260502120353 31 138 0.0 0.0 0.00 0.00 0.00 89 1015.9
20260502115850 30 138 0.0 0.0 0.00 0.00 0.00 89 1015.8
20260502115347 29 138 0.0 0.0 0.00 0.00 0.00 88 1015.9
20260502114843 29 139 0.0 0.0 0.00 0.00 0.00 88 1016.0
20260502114340 29 139 0.0 0.0 0.00 0.00 0.00 88 1015.9
20260502113837 29 139 0.0 0.0 0.00 0.00 0.00 87 1016.0
20260502113335 29 139 0.0 0.0 0.00 0.00 0.00 86 1015.9
20260502112833 29 139 0.0 0.0 0.00 0.00 0.00 86 1016.0
20260502112330 29 139 0.0 0.0 0.00 0.00 0.00 86 1015.8
20260502111828 29 140 0.0 0.0 0.00 0.00 0.00 86 1015.6
20260502111325 29 140 0.0 0.0 0.00 0.00 0.00 86 1015.7
20260502110823 29 140 0.0 0.0 0.00 0.00 0.00 85 1015.9
20260502110320 29 140 0.0 0.0 0.00 0.00 0.00 85 1015.7
20260502105818 29 140 0.0 0.0 0.00 0.00 0.00 86 1015.8
20260502105314 29 140 0.0 0.0 0.00 0.00 0.00 86 1015.8
20260502104812 29 140 0.0 0.0 0.00 0.00 0.00 85 1015.7
20260502104309 29 140 0.0 0.0 0.00 0.00 0.00 84 1015.8
20260502103806 30 140 0.0 0.0 0.00 0.00 0.00 82 1015.8
20260502103303 30 140 0.0 0.0 0.00 0.00 0.00 82 1015.8
20260502102801 30 140 0.0 1.0 0.00 0.00 0.00 81 1015.8
20260502102257 30 140 0.0 0.0 0.00 0.00 0.00 81 1015.8
20260502101755 30 140 0.0 0.0 0.00 0.00 0.00 82 1015.8
20260502101253 30 140 0.0 0.0 0.00 0.00 0.00 81 1015.7
20260502100751 31 140 0.0 1.0 0.00 0.00 0.00 79 1015.7
20260502100249 31 140 0.0 1.0 0.00 0.00 0.00 78 1015.6
20260502091224 32 139 0.0 0.0 0.00 0.00 0.00 76 1015.5
20260502090721 33 139 0.0 0.0 0.00 0.00 0.00 75 1015.4
20260502090217 34 139 0.0 0.0 0.00 0.00 0.00 73 1015.5
20260502071113 34 138 0.0 0.0 0.00 0.00 0.00 69 1015.8
20260502070611 35 138 0.0 0.0 0.00 0.00 0.00 68 1015.8
20260502070109 36 138 1.0 1.0 0.00 0.00 0.00 67 1015.8
20260502065607 37 138 0.0 0.0 0.00 0.00 0.00 63 1015.9
20260502065104 36 138 0.0 0.0 0.00 0.00 0.00 63 1015.7
20260502064603 36 138 0.0 0.0 0.00 0.00 0.00 64 1015.9
20260502064100 36 138 0.0 0.0 0.00 0.00 0.00 65 1016.0
20260502063557 35 138 0.0 0.0 0.00 0.00 0.00 66 1016.0
20260502063055 35 138 0.0 0.0 0.00 0.00 0.00 67 1015.8
20260502062552 34 138 0.0 0.0 0.00 0.00 0.00 69 1016.0
20260502062050 35 138 0.0 0.0 0.00 0.00 0.00 72 1016.2
20260502061547 35 138 0.0 0.0 0.00 0.00 0.00 69 1016.0
20260502061044 35 138 0.0 0.0 0.00 0.00 0.00 71 1015.9
20260502060539 35 138 0.0 0.0 0.00 0.00 0.00 68 1015.9
20260502060037 35 138 0.0 0.0 0.00 0.00 0.00 69 1016.1
20260502055534 35 138 0.0 0.0 0.00 0.00 0.00 71 1016.0
20260502055033 35 138 0.0 1.0 0.00 0.00 0.00 72 1015.9
20260502054531 36 138 0.0 0.0 0.00 0.00 0.00 68 1016.0
20260502054027 36 138 0.0 0.0 0.00 0.00 0.00 66 1016.0
20260502053524 36 138 0.0 0.0 0.00 0.00 0.00 66 1016.0
20260502053022 36 138 0.0 0.0 0.00 0.00 0.00 66 1016.0
20260502052520 36 138 0.0 0.0 0.00 0.00 0.00 67 1015.9
20260502052018 36 138 0.0 1.0 0.00 0.00 0.00 67 1016.0
20260502051516 36 138 0.0 0.0 0.00 0.00 0.00 70 1015.8
20260502051014 36 138 0.0 0.0 0.00 0.00 0.00 69 1016.0
20260502050509 35 138 0.0 0.0 0.00 0.00 0.00 70 1015.9
20260502050007 36 138 0.0 0.0 0.00 0.00 0.00 74 1015.9
20260502045503 36 138 0.0 0.0 0.00 0.00 0.00 74 1016.0
20260502045001 36 138 0.0 0.0 0.00 0.00 0.00 72 1016.0
20260502044456 36 138 0.0 0.0 0.00 0.00 0.00 70 1015.9
20260502043953 36 138 0.0 0.0 0.00 0.00 0.00 69 1016.0
20260502043451 37 138 0.0 0.0 0.00 0.00 0.00 64 1015.8
20260502042950 38 138 0.0 0.0 0.00 0.00 0.00 62 1016.0
20260502042447 39 138 0.0 0.0 0.00 0.00 0.00 60 1016.0
20260502041945 40 138 0.0 0.0 0.00 0.00 0.00 58 1016.0
20260502041443 40 138 0.0 1.0 0.00 0.00 0.00 58 1016.0
20260502040939 41 138 0.0 0.0 0.00 0.00 0.00 56 1016.0
20260502040436 41 138 0.0 0.0 0.00 0.00 0.00 55 1015.8
20260502035932 41 138 0.0 1.0 0.00 0.00 0.00 57 1015.7
20260502035428 41 138 0.0 1.0 0.00 0.00 0.00 56 1016.1
20260502034926 41 138 0.0 1.0 0.00 0.00 0.00 57 1016.1
20260502034425 41 138 0.0 1.0 0.00 0.00 0.00 57 1015.8
20260502033923 41 138 0.0 1.0 0.00 0.00 0.00 57 1016.0
20260502033420 41 138 0.0 1.0 0.00 0.00 0.00 57 1016.0
20260502032917 41 138 0.0 1.0 0.00 0.00 0.00 57 1015.8
20260502032413 41 138 0.0 0.0 0.00 0.00 0.00 59 1016.0
20260502031910 40 138 0.0 0.0 0.00 0.00 0.00 60 1016.0
20260502031409 40 138 0.0 0.0 0.00 0.00 0.00 62 1015.9
20260502030907 41 138 0.0 0.0 0.00 0.00 0.00 59 1016.2
20260502030405 42 138 0.0 0.0 0.00 0.00 0.00 57 1016.0
20260502025903 42 138 0.0 0.0 0.00 0.00 0.00 56 1015.9
20260502025359 42 138 0.0 0.0 0.00 0.00 0.00 56 1016.0
20260502024857 42 138 0.0 0.0 0.00 0.00 0.00 58 1016.2
20260502024354 43 138 0.0 0.0 0.00 0.00 0.00 54 1016.0
20260502023852 44 138 0.0 0.0 0.00 0.00 0.00 51 1015.7
20260502023350 44 138 0.0 0.0 0.00 0.00 0.00 52 1015.8
20260502022847 44 138 0.0 0.0 0.00 0.00 0.00 51 1015.8
20260502022343 44 138 0.0 0.0 0.00 0.00 0.00 50 1015.8
20260502021840 44 138 0.0 0.0 0.00 0.00 0.00 49 1015.6
20260502021338 45 138 0.0 0.0 0.00 0.00 0.00 48 1015.6
20260502020835 45 138 0.0 0.0 0.00 0.00 0.00 50 1015.8
20260502020333 46 138 0.0 0.0 0.00 0.00 0.00 49 1015.6
20260502015829 46 138 0.0 0.0 0.00 0.00 0.00 46 1015.6
20260502015327 46 138 0.0 0.0 0.00 0.00 0.00 46 1015.6
20260502014824 46 138 0.0 0.0 0.00 0.00 0.00 44 1015.6
20260502014321 47 138 0.0 0.0 0.00 0.00 0.00 43 1015.5
20260502013817 47 138 0.0 0.0 0.00 0.00 0.00 43 1015.4
20260502013313 48 138 0.0 0.0 0.00 0.00 0.00 42 1015.5
20260502012809 48 138 0.0 0.0 0.00 0.00 0.00 43 1015.4
20260502012307 47 138 0.0 0.0 0.00 0.00 0.00 44 1015.4
20260502011804 48 138 0.0 0.0 0.00 0.00 0.00 43 1015.4
20260502011300 48 138 0.0 0.0 0.00 0.00 0.00 43 1015.3
20260502010757 49 138 0.0 0.0 0.00 0.00 0.00 41 1015.3
20260502010254 49 138 0.0 0.0 0.00 0.00 0.00 41 1015.1
20260502005751 50 138 0.0 0.0 0.00 0.00 0.00 39 1015.3
20260502005249 50 138 0.0 0.0 0.00 0.00 0.00 40 1015.2
20260502004745 50 138 0.0 0.0 0.00 0.00 0.00 38 1015.2
20260502004242 51 138 0.0 0.0 0.00 0.00 0.00 39 1015.2
20260502003739 51 138 0.0 0.0 0.00 0.00 0.00 39 1015.4
20260502003237 51 147 1.0 1.0 0.00 0.00 0.00 37 1015.5
20260502002732 51 145 0.0 0.0 0.00 0.00 0.00 37 1015.3
20260502002230 51 135 0.0 1.0 0.00 0.00 0.00 37 1015.3
20260502001727 51 305 0.0 2.0 0.00 0.00 0.00 38 1015.5
20260502001225 51 96 1.0 2.0 0.00 0.00 0.00 35 1015.5
20260502000723 52 160 1.0 1.0 0.00 0.00 0.00 35 1015.2
20260502000220 52 161 1.0 1.0 0.00 0.00 0.00 36 1015.3
20260501235716 52 147 0.0 2.0 0.00 0.00 0.00 36 1015.3
20260501235212 52 289 2.0 2.0 0.00 0.00 0.00 36 1015.3
20260501234708 52 31 2.0 3.0 0.00 0.00 0.00 35 1015.2
20260501234205 52 128 1.0 1.0 0.00 0.00 0.00 36 1015.3
20260501233703 52 174 1.0 2.0 0.00 0.00 0.00 35 1015.3
20260501233200 53 143 1.0 2.0 0.00 0.00 0.00 33 1015.3
20260501232655 53 184 1.0 3.0 0.00 0.00 0.00 33 1015.2
20260501232153 53 137 0.0 3.0 0.00 0.00 0.00 34 1015.3
20260501231651 53 220 2.0 3.0 0.00 0.00 0.00 34 1015.2
20260501231149 53 118 0.0 1.0 0.00 0.00 0.00 32 1015.2
20260501230647 53 122 0.0 1.0 0.00 0.00 0.00 33 1015.4
20260501230145 53 92 1.0 3.0 0.00 0.00 0.00 33 1015.2
20260501225642 52 153 1.0 2.0 0.00 0.00 0.00 34 1015.0
20260501225138 53 140 0.0 1.0 0.00 0.00 0.00 34 1015.3
20260501224635 53 141 0.0 2.0 0.00 0.00 0.00 35 1015.3
20260501224133 53 154 0.0 3.0 0.00 0.00 0.00 35 1015.3
20260501223629 53 148 0.0 3.0 0.00 0.00 0.00 35 1015.6
20260501223126 53 105 0.0 3.0 0.00 0.00 0.00 33 1015.3
20260501222621 55 153 1.0 6.0 0.00 0.00 0.00 31 1015.5
20260501222119 56 90 1.0 2.0 0.00 0.00 0.00 33 1015.5
20260501221615 55 136 2.0 7.0 0.00 0.00 0.00 31 1015.5
20260501221113 53 103 1.0 6.0 0.00 0.00 0.00 32 1015.5
20260501220611 54 170 1.0 3.0 0.00 0.00 0.00 34 1015.2
20260501220107 54 191 1.0 3.0 0.00 0.00 0.00 33 1015.4
20260501215604 55 107 0.0 3.0 0.00 0.00 0.00 30 1015.3
20260501215059 54 106 1.0 3.0 0.00 0.00 0.00 30 1015.5
20260501214554 55 123 1.0 6.0 0.00 0.00 0.00 29 1015.3
20260501214050 56 146 1.0 6.0 0.00 0.00 0.00 31 1015.4
20260501213547 55 161 0.0 5.0 0.00 0.00 0.00 31 1015.2
20260501213044 55 170 2.0 5.0 0.00 0.00 0.00 30 1015.5
20260501212540 56 88 1.0 5.0 0.00 0.00 0.00 32 1015.4
20260501212037 54 68 3.0 5.0 0.00 0.00 0.00 31 1015.5
20260501211534 53 142 0.0 3.0 0.00 0.00 0.00 32 1015.4
20260501211032 52 108 0.0 3.0 0.00 0.00 0.00 32 1015.8
20260501210527 53 140 1.0 2.0 0.00 0.00 0.00 32 1015.8
20260501210025 54 21 2.0 2.0 0.00 0.00 0.00 33 1015.7
20260501205521 55 300 1.0 3.0 0.00 0.00 0.00 33 1015.6
20260501205019 55 150 2.0 3.0 0.00 0.00 0.00 32 1015.6
20260501204515 52 114 2.0 6.0 0.00 0.00 0.00 32 1015.6
20260501204011 52 123 0.0 3.0 0.00 0.00 0.00 33 1015.7
20260501203508 53 44 4.0 8.0 0.00 0.00 0.00 33 1016.0
20260501203006 53 89 1.0 3.0 0.00 0.00 0.00 34 1015.8
20260501202502 52 124 1.0 5.0 0.00 0.00 0.00 37 1015.9
20260501201958 52 58 3.0 8.0 0.00 0.00 0.00 33 1015.8
20260501201456 53 57 1.0 5.0 0.00 0.00 0.00 33 1015.9
20260501200953 52 49 2.0 6.0 0.00 0.00 0.00 32 1016.1
20260501200450 51 18 2.0 3.0 0.00 0.00 0.00 36 1016.0
20260501195947 51 29 5.0 7.0 0.00 0.00 0.00 35 1016.2
20260501195444 52 10 2.0 5.0 0.00 0.00 0.00 34 1016.1
20260501194939 52 124 1.0 3.0 0.00 0.00 0.00 35 1016.1
20260501194435 55 15 5.0 6.0 0.00 0.00 0.00 31 1016.0
20260501193931 54 65 6.0 7.0 0.00 0.00 0.00 31 1016.0
20260501193430 52 232 3.0 5.0 0.00 0.00 0.00 34 1016.3
20260501192927 51 74 2.0 5.0 0.00 0.00 0.00 34 1016.1
20260501192424 53 152 2.0 6.0 0.00 0.00 0.00 33 1016.1
20260501191922 53 171 3.0 5.0 0.00 0.00 0.00 33 1015.8
20260501191419 54 265 2.0 5.0 0.00 0.00 0.00 33 1016.1
20260501190915 53 166 2.0 3.0 0.00 0.00 0.00 33 1016.1
20260501190411 53 337 3.0 7.0 0.00 0.00 0.00 36 1016.2
20260501185911 51 153 1.0 2.0 0.00 0.00 0.00 36 1016.3
20260501185408 50 45 3.0 3.0 0.00 0.00 0.00 37 1016.2
20260501184904 49 70 1.0 6.0 0.00 0.00 0.00 35 1016.4
20260501184400 51 47 4.0 8.0 0.00 0.00 0.00 34 1016.2
20260501183855 54 89 1.0 3.0 0.00 0.00 0.00 32 1016.2
20260501183353 50 293 2.0 5.0 0.00 0.00 0.00 35 1016.2
20260501182849 51 93 3.0 8.0 0.00 0.00 0.00 34 1016.3
20260501182346 51 232 3.0 5.0 0.00 0.00 0.00 34 1016.4
20260501181843 50 37 1.0 5.0 0.00 0.00 0.00 37 1016.4
20260501181340 51 87 1.0 6.0 0.00 0.00 0.00 37 1016.5
20260501180838 50 194 1.0 5.0 0.00 0.00 0.00 40 1016.3
20260501180333 49 241 3.0 5.0 0.00 0.00 0.00 39 1016.5
20260501175831 52 70 6.0 8.0 0.00 0.00 0.00 37 1016.5
20260501175327 50 29 2.0 3.0 0.00 0.00 0.00 36 1016.6
20260501174824 49 117 1.0 3.0 0.00 0.00 0.00 38 1016.6
20260501174321 50 87 3.0 6.0 0.00 0.00 0.00 36 1016.5
20260501173820 50 323 4.0 7.0 0.00 0.00 0.00 38 1016.8
20260501173317 52 67 1.0 2.0 0.00 0.00 0.00 37 1016.8
20260501172812 50 197 2.0 5.0 0.00 0.00 0.00 39 1016.8
20260501172307 50 37 3.0 3.0 0.00 0.00 0.00 38 1016.5
20260501171803 50 86 2.0 3.0 0.00 0.00 0.00 37 1016.9
20260501171300 50 51 5.0 7.0 0.00 0.00 0.00 37 1016.6
20260501170757 50 350 5.0 7.0 0.00 0.00 0.00 38 1016.9
20260501170254 49 167 3.0 5.0 0.00 0.00 0.00 39 1017.1
20260501165751 48 351 4.0 6.0 0.00 0.00 0.00 38 1017.1
20260501165249 48 79 2.0 3.0 0.00 0.00 0.00 42 1016.9
20260501164747 49 312 4.0 7.0 0.00 0.00 0.00 39 1017.0
20260501164243 50 48 3.0 7.0 0.00 0.00 0.00 38 1017.1
20260501163739 49 173 3.0 5.0 0.00 0.00 0.00 40 1017.2
20260501163237 46 62 1.0 5.0 0.00 0.00 0.00 42 1017.2
20260501162733 47 344 3.0 5.0 0.00 0.00 0.00 41 1016.9
20260501162229 47 73 2.0 6.0 0.00 0.00 0.00 41 1017.0
20260501161727 47 73 3.0 5.0 0.00 0.00 0.00 42 1017.1
20260501161224 47 53 2.0 5.0 0.00 0.00 0.00 42 1017.1